Location: Asheville, NC
(35.6000°N, 82.5500°W)
Time: 20:29:09
(UTC-04:00)

UNISAT 6 - Visible Passes

Search period start: 17 July 2018 00:00
Search period end: 27 July 2018 00:00
Orbit: 607 x 691 km, 97.8° (Epoch: 17 July)

Date Brightness Start Highest point End Pass type
(mag) Time Alt. Az. Time Alt. Az. Time Alt. Az.
17 Jul ? 00:18:11 10° NW 00:20:04 13° WNW 00:21:47 10° W visible
17 Jul ? 23:05:40 10° N 23:09:58 81° WNW 23:10:26 69° SW visible
18 Jul ? 21:56:47 10° ENE 21:59:04 15° E 21:59:04 15° E visible
18 Jul ? 23:32:03 10° N 23:36:02 39° WNW 23:36:50 35° W visible
19 Jul ? 22:21:45 10° NE 22:25:28 29° E 22:25:28 29° E visible
19 Jul ? 23:58:53 10° NNW 00:02:01 20° WNW 00:03:14 18° W visible
20 Jul ? 22:47:28 10° NNE 22:51:44 61° E 22:51:52 60° ESE visible
21 Jul ? 00:27:14 10° NW 00:27:54 10° WNW 00:28:35 10° WNW visible
21 Jul ? 23:13:36 10° N 23:17:52 64° WNW 23:18:16 60° WSW visible
22 Jul ? 22:04:09 10° NE 22:06:54 18° E 22:06:54 18° E visible
22 Jul ? 23:40:05 10° N 23:43:54 31° WNW 23:44:40 29° W visible
23 Jul ? 22:29:26 10° NNE 22:33:18 37° E 22:33:18 37° E visible
24 Jul ? 00:07:07 10° NNW 00:09:52 17° WNW 00:11:04 15° W visible
24 Jul ? 22:55:18 10° NNE 22:59:40 77° ESE 22:59:41 77° ESE visible
25 Jul ? 21:47:20 10° ENE 21:48:19 11° E 21:48:19 11° E visible
25 Jul ? 23:21:32 10° N 23:25:46 51° WNW 23:26:05 50° W visible
26 Jul ? 22:11:40 10° NE 22:14:43 23° E 22:14:43 23° E visible
26 Jul ? 23:48:10 10° NNW 23:51:47 26° WNW 23:52:28 25° W visible
